This is the latest recevied weather packets stored in our database for station/object DK8DX-13. If no packets are shown the sender has not sent any weather packets the latest 10 day(s).
| Time | Temp. | Humidity | Pressure | Rain* | Wind** | Luminosity | Snow |
|---|---|---|---|---|---|---|---|
| 1777118922 | 15.56° C | 49% | 1020.1 hPa | 0 mm | - | - | - |
| 1777118642 | 15.56° C | 49% | 1020.1 hPa | 0 mm | - | - | - |
| 1777118387 | 15.56° C | 50% | 1020.1 hPa | 0 mm | - | - | - |
| 1777118122 | 15.56° C | 50% | 1020.1 hPa | 0 mm | - | - | - |
| 1777117831 | 15.56° C | 50% | 1020.2 hPa | 0 mm | - | - | - |
| 1777117577 | 15.56° C | 50% | 1020.2 hPa | 0 mm | - | - | - |
| 1777117317 | 15.56° C | 51% | 1020.2 hPa | 0 mm | - | - | - |
| 1777117048 | 15° C | 51% | 1020.4 hPa | 0 mm | - | - | - |
| 1777116772 | 15° C | 50% | 1020.3 hPa | 0 mm | - | - | - |
| 1777116517 | 15° C | 52% | 1020.4 hPa | 0 mm | - | - | - |
| 1777116243 | 15° C | 51% | 1020.4 hPa | 0 mm | - | - | - |
| 1777116000 | 15° C | 52% | 1020.6 hPa | 0 mm | - | - | - |
| 1777115737 | 15° C | 50% | 1020.5 hPa | 0 mm | - | - | - |
| 1777115467 | 15° C | 50% | 1020.5 hPa | 0 mm | - | - | - |
| 1777115207 | 15° C | 53% | 1020.5 hPa | 0 mm | - | - | - |
| 1777114932 | 15° C | 52% | 1020.6 hPa | 0 mm | - | - | - |
| 1777114655 | 15° C | 53% | 1020.6 hPa | 0 mm | - | - | - |
| 1777114376 | 14.44° C | 56% | 1020.6 hPa | 0 mm | - | - | - |
| 1777114102 | 13.89° C | 55% | 1020.7 hPa | 0 mm | - | - | - |
| 1777113826 | 13.33° C | 55% | 1020.7 hPa | 0 mm | - | - | - |
| 1777113542 | 13.33° C | 55% | 1020.7 hPa | 0 mm | - | - | - |
| 1777113267 | 13.33° C | 56% | 1020.8 hPa | 0 mm | - | - | - |
| 1777113022 | 13.89° C | 54% | 1020.8 hPa | 0 mm | - | - | - |
| 1777112747 | 13.89° C | 54% | 1020.8 hPa | 0 mm | - | - | - |
| 1777112472 | 13.89° C | 57% | 1020.8 hPa | 0 mm | - | - | - |
* Rain latest hour (hover to see other rain measurements)
** Current wind speed in m/s (hover to see current wind gust speed)